Location: Bieujac
(44.5398°N, 0.1549°W)
Time: 23:02:35
(UTC+00:00)

Cosmos 2228 Rocket - Pass Details

Date: 17 November 2019
Orbit: 619 x 651 km, 82.5° (Epoch: 07 December)

Event Time Altitude Azimuth Distance (km) Brightness Sun altitude
Rises 05:39:07 0° 355° (N) 2,979 6.4 -14.2°
Reaches altitude 10° 05:41:25 10° 359° (N) 2,066 5.6 -13.8°
Maximum altitude 05:45:57 58° 79° (ENE) 762 3.8 -13.1°
Drops below altitude 10° 05:50:27 10° 159° (SSE) 2,051 6.2 -12.3°
Sets 05:52:44 0° 163° (SSE) 2,955 7.0 -11.9°
